EW4664 Weather Reports


Display with metric or nautical units.
time (UTC)temp
F
wind
direction
speed
MPH
gust
MPH
rain 1hr
in
rain 24hr
in
rain mn
in
humidity
%
barometer
mb
20260505070018 54 0.0 0.0 0.00 0.00 0.00 82 1011.2
20260505065020 54 0.0 0.0 0.00 0.00 0.00 82 1011.2
20260505064019 55 0.0 0.0 0.00 0.00 0.00 82 1011.1
20260505063020 55 0.0 0.0 0.00 0.00 0.00 81 1011.1
20260505062020 55 0.0 0.0 0.00 0.00 0.00 81 1011.0
20260505061020 56 0.0 0.0 0.00 0.00 0.00 82 1010.8
20260505060019 56 0.0 0.0 0.00 0.00 0.00 81 1010.7
20260505055019 56 0.0 0.0 0.00 0.00 0.00 81 1010.5
20260505054040 57 0.0 0.0 0.00 0.00 0.00 80 1010.5
20260505053059 57 0.0 0.0 0.00 0.00 0.00 79 1010.3
20260505052020 57 0.0 0.0 0.00 0.00 0.00 78 1010.3
20260505051020 58 0.0 0.0 0.00 0.00 0.00 77 1010.3
20260505041100 62 0.0 0.0 0.00 0.00 0.00 73 1009.7
20260505040100 63 0.0 0.0 0.00 0.00 0.00 72 1009.5
20260505035019 64 0.0 0.0 0.00 0.00 0.00 73 1009.3
20260505034020 64 0.0 0.0 0.00 0.00 0.00 72 1009.2
20260505033019 65 0.0 0.0 0.00 0.00 0.00 71 1009.1
20260505032019 66 0.0 0.0 0.00 0.00 0.00 70 1009.0
20260505031100 67 0.0 0.0 0.00 0.00 0.00 70 1008.9
20260505030039 67 0.0 0.0 0.00 0.00 0.00 69 1008.7
20260505025020 68 0.0 0.0 0.00 0.00 0.00 68 1008.7
20260505024039 68 0.0 0.0 0.00 0.00 0.00 67 1008.8
20260505023020 69 0.0 0.0 0.00 0.00 0.00 67 1008.7
20260505022019 69 0.0 0.0 0.00 0.00 0.00 66 1008.8
20260505021019 70 0.0 0.0 0.00 0.00 0.00 66 1008.8
20260505020040 70 0.0 0.0 0.00 0.00 0.00 64 1008.8
20260505015019 70 0.0 0.0 0.00 0.00 0.00 63 1008.9
20260505014020 71 0.0 0.0 0.00 0.00 0.00 63 1009.1
20260505013040 71 0.0 0.0 0.00 0.00 0.00 62 1009.1
20260505012019 71 0.0 0.0 0.00 0.00 0.00 59 1009.2
20260505011020 71 0.0 1.0 0.00 0.00 0.00 59 1009.3
20260505010020 71 0.0 0.0 0.00 0.00 0.00 59 1009.3
20260505005019 71 0.0 1.0 0.00 0.00 0.00 58 1009.3
20260505004019 71 0.0 1.0 0.00 0.00 0.00 56 1009.4
20260505003019 71 0.0 2.0 0.00 0.00 0.00 57 1009.4
20260505002019 71 0.0 1.0 0.00 0.00 0.00 56 1009.3
20260505001019 72 45 1.0 2.0 0.00 0.00 0.00 55 1009.4
20260505000019 72 0.0 2.0 0.00 0.00 0.00 56 1009.4
20260504235019 72 0.0 1.0 0.00 0.00 0.00 54 1009.4
20260504234019 72 0.0 1.0 0.00 0.00 0.00 54 1009.4
20260504233019 73 0.0 0.0 0.00 0.00 0.00 53 1009.4
20260504232019 74 0.0 2.0 0.00 0.00 0.00 52 1009.4
20260504231019 74 0.0 2.0 0.00 0.00 0.00 52 1009.4
20260504230019 74 0.0 2.0 0.00 0.00 0.00 53 1009.5
20260504225019 74 0.0 2.0 0.00 0.00 0.00 54 1009.5
20260504224020 74 0.0 0.0 0.00 0.00 0.00 52 1009.6
20260504223019 74 0.0 0.0 0.00 0.00 0.00 55 1009.6
20260504222039 74 0.0 0.0 0.00 0.00 0.00 54 1009.7
20260504221019 74 0.0 1.0 0.00 0.00 0.00 54 1009.8
20260504220019 74 0.0 2.0 0.00 0.00 0.00 54 1009.8
20260504215019 74 0.0 2.0 0.00 0.00 0.00 55 1009.9
20260504214019 75 45 1.0 2.0 0.00 0.00 0.00 54 1010.0
20260504213019 74 0.0 1.0 0.00 0.00 0.00 54 1010.1
20260504212019 74 0.0 2.0 0.00 0.00 0.00 54 1010.1
20260504211019 74 0.0 1.0 0.00 0.00 0.00 56 1010.2
20260504210019 73 0.0 1.0 0.00 0.00 0.00 57 1010.2
20260504205019 73 0.0 2.0 0.00 0.00 0.00 59 1010.3
20260504204019 73 0.0 0.0 0.00 0.00 0.00 59 1010.3
20260504203039 72 0.0 0.0 0.00 0.00 0.00 59 1010.3
20260504202019 72 0.0 0.0 0.00 0.00 0.00 58 1010.3
20260504201019 73 0.0 2.0 0.00 0.00 0.00 58 1010.3
20260504200019 73 45 1.0 2.0 0.00 0.00 0.00 56 1010.3
20260504195019 73 0.0 2.0 0.00 0.00 0.00 56 1010.3
20260504194019 73 0.0 1.0 0.00 0.00 0.00 56 1010.3
20260504193034 73 0.0 0.0 0.00 0.00 0.00 58 1010.3
20260504192019 72 0.0 1.0 0.00 0.00 0.00 57 1010.3
20260504191019 71 0.0 2.0 0.00 0.00 0.00 59 1010.4
20260504190019 70 0.0 0.0 0.00 0.00 0.00 63 1010.3
20260504185039 70 0.0 0.0 0.00 0.00 0.00 60 1010.4
20260504184019 69 0.0 2.0 0.00 0.00 0.00 61 1010.5
20260504183039 69 0.0 1.0 0.00 0.00 0.00 60 1010.7
20260504182019 69 0.0 0.0 0.00 0.00 0.00 60 1010.7
20260504181047 69 0.0 0.0 0.00 0.00 0.00 60 1010.7
20260504180019 69 0.0 1.0 0.00 0.00 0.00 60 1010.5
20260504175019 69 0.0 1.0 0.00 0.00 0.00 61 1010.5
20260504174019 69 0.0 2.0 0.00 0.00 0.00 62 1010.4
20260504173629 68 0.0 0.0 0.00 0.00 0.00 67 1010.4
20260504081458 56 360 0.0 0.0 0.00 0.00 0.00 72 1008.8